Regional Weather Roundup
Issued by NWS

Home | Current Version | Previous Version | Text Only | Print | Product List | Glossary On
Versions: 1 2 3 4 5 6 7 8 9 10 11 12 13 14 15 16 17 18 19 20 21 22 23 24 25 26 27 28 29 30 31 32 33 34 35 36 37 38 39 40 41 42 43 44 45 46 47 48 49 50
000
ASUS43 KMPX 211010
RWRMN
WEATHER ROUNDUP FOR MINNESOTA
NATIONAL WEATHER SERVICE TWIN CITIES/CHANHASSEN MN
500 AM CDT THU AUG 21 2014


NOTE: "FAIR" INDICATES FEW OR NO CLOUDS BELOW 12,000 FEET WITH NO
SIGNIFICANT WEATHER AND/OR OBSTRUCTIONS TO VISIBILITY. N/A MEANS
CURRENT SKY AND/OR WEATHER CONDITIONS ARE NOT AVAILABLE.

MNZ060>063-068>070-211100-
   Twin Cities Metro

CITY           SKY/WX    TMP DP  RH WIND       PRES   REMARKS
TWIN CITIES    LGT RAIN  70  68  93 E13       29.79F
ST PAUL        LGT RAIN  69  66  90 E9        29.81S
CRYSTAL        LGT RAIN  71  66  84 E9        29.75F
BLAINE         RAIN      70  68  94 E7        29.79F
LAKEVILLE      CLOUDY    68  66  94 E5        29.79S
EDEN PRAIRIE   LGT RAIN  71  68  90 E12       29.76F
SOUTH ST PAUL  LGT RAIN  70  67  89 SE5       29.80S
LAKE ELMO      LGT RAIN  68  64  88 E3        29.84R
$$
MNZ001>005-007-008-013>017-022>024-027-028-211100-
   Northwest Minnesota

CITY           SKY/WX    TMP DP  RH WIND       PRES   REMARKS
BEMIDJI        CLOUDY    63  61  93 SE10      29.83R
HALLOCK        CLOUDY    68  64  88 SE7       29.77S
ROSEAU         MOCLDY    64  59  82 SE5       29.81R
WARROAD        MOCLDY    63  59  88 SE5       29.83R
THIEF RVR FALL CLOUDY    64  63  94 E7        29.79R
CROOKSTON      CLOUDY    70  64  83 SE10      29.74F
FOSSTON        CLOUDY    64  61  88 E8        29.78F
DETROIT LAKES  RAIN      64  64 100 SE16G26   29.74F
MOORHEAD       LGT RAIN  70  70 100 SE20G26   29.67F
PARK RAPIDS    LGT RAIN  65  63  93 SE10      29.83R
MAHNOMEN       LGT RAIN  66  64  92 SE16G23   29.71F
$$
MNZ006-009>011-018-025>026-211100-
   North Central Minnesota

CITY           SKY/WX    TMP DP  RH WIND       PRES   REMARKS
BAUDETTE       PTCLDY    60  58  92 SE7       29.83F
FLAG ISLAND    CLEAR     66  63  88 SE10      29.83R
INTL FALLS     CLEAR     55  54  96 SE6       29.87F
WASKISH        MOCLDY    61  59  94 CALM      29.83S
BIG FORK       CLOUDY    61  57  88 E6        29.87R
LONGVILLE      CLOUDY    63  61  94 SE6       29.85R
GRAND RAPIDS   CLOUDY    59  57  94 SE7       29.90R
CRANE LAKE     CLOUDY    55  55 100 SE3       29.91F
ORR            CLOUDY    57  55  94 SE3       29.86F
COOK           CLOUDY    59  57  94 SE5       29.89S
WALKER         CLOUDY    65  61  87 SE7       29.84R
$$
MNZ012-019>021-037-211100-
   Northeast Minnesota

CITY           SKY/WX    TMP DP  RH WIND       PRES   REMARKS
DULUTH         FOG       60  58  92 E13       29.90R VSB 1/2
ELY            CLOUDY    59  57  94 SE7       29.92F
HIBBING        CLOUDY    61  59  93 SE7       29.90R
EVELETH        CLOUDY    59  59 100 SE6       29.91R
DULUTH HARBOR  FOG       61  59  94 NE16      29.91R VSB 1/2
TWO HARBORS    CLOUDY    59  54  82 E7        29.90R HAZE
SILVER BAY     CLOUDY    57  57 100 NE8       29.90F FOG
GRAND MARAIS     N/A     60  59  96 NE6       29.95R
G MARAIS ARPRT FOG       57  54  88 SE3       29.98R VSB 1/4
$$
MNZ029>031-032-039>041-046>048-054>057-064-211100-
   West Central Minnesota

CITY           SKY/WX    TMP DP  RH WIND       PRES   REMARKS
FERGUS FALLS   CLOUDY    70  66  88 SE18G25   29.72F
WHEATON        CLOUDY    66  66 100 E18G26    29.71S
MORRIS         CLOUDY    70  70 100 E15G21    29.74F
ALEXANDRIA     HVY RAIN  68  66  93 SW6       29.85R FOG
ELBOW LAKE     TSTM      67  67  98 E20G25    29.75F
WADENA         HVY RAIN  64  63  94 SE5       29.83R
APPLETON       CLOUDY    70  66  88 E13       29.72F
BENSON         CLOUDY    66  66 100 SE8       29.76R
ORTONVILLE     CLOUDY    70  66  88 SE16      29.70S
MADISON        CLOUDY    72  70  94 E9        29.71S
WILLMAR        RAIN      70  68  94 CALM      29.82R
$$
MNZ033>034-036-042>043-049>051-058-059-211100-
   Central Minnesota

CITY           SKY/WX    TMP DP  RH WIND       PRES   REMARKS
ST CLOUD       RAIN      68  65  90 E8        29.77F FOG
SAUK CENTRE    LGT RAIN  66  65  96 E10       29.79F
PAYNESVILLE    RAIN      66  66 100 N9        29.81R
AITKIN         MIX PCPN  66  59  77 E5        29.84R
PINE RIVER     CLOUDY    64  63  94 SE6       29.88R
BRAINERD       TSTM      64  63  96 NE5       29.85R FOG
STAPLES        RAIN      63  63 100 E5        29.82S
LONG PRAIRIE   RAIN      66  64  94 SE17      29.79F
LITTLE FALLS   LGT RAIN  64  63  94 W6          N/A
LITCHFIELD     CLOUDY    72  72 100 CALM      29.80R
BUFFALO        TSTM      69  66  89 E9G17     29.75F
MAPLE LAKE     TSTM      70  68  95 NE10      29.76F
$$
MNZ037-044-045-052-053-211100-
   East Central Minnesota

CITY           SKY/WX    TMP DP  RH WIND       PRES   REMARKS
PRINCETON      LGT RAIN  66  64  94 E6        29.80S
MORA           LGT RAIN  63  61  94 E3        29.83F
CAMBRIDGE      CLOUDY    68  59  73 E5        29.80F
RUSH CITY      CLOUDY    66  62  86 E3        29.84R
MOOSE LAKE     CLOUDY    61  59  94 CALM      29.86R
HINCKLEY       CLOUDY    64  63  94 E6        29.85R
CLOQUET        CLOUDY    61  59  94 E9        29.90R FOG
MCGREGOR       CLOUDY    61  59  94 E6        29.87R
$$
MNZ071>073-080-081-089-090-097-098-211100-
   Southwest Minnesota

CITY           SKY/WX    TMP DP  RH WIND       PRES   REMARKS
MONTEVIDEO     CLOUDY    70  70 100 SE17      29.75R
GRANITE FALLS  CLOUDY    70  69  96 N12       29.77R
CANBY          CLOUDY    68  66  94 E8        29.73F
MARSHALL       MOCLDY    70  64  83 E12G29    29.72R
REDWOOD FALLS  CLOUDY    70  66  87 SE7       29.71R
OLIVIA         CLOUDY    70  68  94 SE12G22   29.72F
PIPESTONE      PTCLDY    73  72  94 S3        29.72R
WINDOM         TSTM      72  70  94 E5        29.75F
WORTHINGTON    CLOUDY    72  14  11 CALM      29.74F
JACKSON        CLOUDY    72  66  83 E5        29.77R
TRACY          MOCLDY    71  69  94 SE6       29.71S
SLAYTON        PTCLDY    70  69  99 CALM      29.73R
$$
MNZ065>067-074>077-082>085-091>093-211100-
   South Central Minnesota

CITY           SKY/WX    TMP DP  RH WIND       PRES   REMARKS
MANKATO        CLOUDY    70  66  88 NW14      29.81R THUNDER
NEW ULM        CLOUDY    70  70 100 SE18      29.74F
ST JAMES       TSTM      73  72  94 W6        29.82R
FAIRMONT       CLOUDY    72  66  83 MISG      29.80R THUNDER
GLENCOE        LGT RAIN  71  67  86 S3        29.77R
FARIBAULT      LGT RAIN  73  66  78 E5        29.78F
OWATONNA       LGT RAIN  72  68  88 SE12      29.78F
WASECA         CLOUDY    72  66  83 SE10      29.77F
ALBERT LEA     CLOUDY    72  70  94 SE9       29.79S FOG
$$
MNZ078>079-086>088-094>096-211100-
   Southeast Minnesota

CITY           SKY/WX    TMP DP  RH WIND       PRES   REMARKS
ROCHESTER      LGT RAIN  69  66  90 SE10      29.82F
RED WING       CLOUDY    72  66  83 SE9       29.80F
STANTON        LGT RAIN  72  67  84 SE7       29.78S
DODGE CENTER   LGT RAIN  70  68  94 SE9       29.81F
WINONA         CLOUDY    70  68  94 SE3       29.83F
AUSTIN         CLOUDY    72  70  94 SE5       29.81S
PRESTON        CLOUDY    69  69 100 SE6       29.85S FOG
$$
ABBREVIATIONS USED IN REMARKS
   TC - TEMPERATURES IN CELSIUS
  WCI - WIND CHILL INDEX
   HX - HEAT INDEX
  VSB - VISIBILITY
$$



USA.gov is the U.S. government's official web portal to all federal, state and local government web resources and services.